Weather History for Resolute, NU

Change the Weather History Date:

Monday, February 6, 2012

  Actual Average Record
Temperature  
Mean Temperature -23 °F -  
Max Temperature -14 °F -19 °F -2 °F (2002)
Min Temperature -32 °F -29 °F -45 °F (2008)
Degree Days  
Heating Degree Days 88    
Moisture  
Dew Point -31 °F    
Average Humidity 67    
Maximum Humidity 83    
Minimum Humidity 46    
Precipitation  
Precipitation 0.02 in - - ()
Sea Level Pressure  
Sea Level Pressure 29.79 in    
Wind  
Wind Speed 12 mph ()    
Max Wind Speed 37 mph    
Max Gust Speed 43 mph    
Visibility 6.2 miles    
Events Snow    
Averages and records for this station are not official NWS values.
T = Trace of Precipitation, MM = Missing Value Source: Averaged Metar Reports

Daily Weather History Graph

Daily Weather History Graph

Search for Another Location

Airport:

Trip Planner

Search our weather history database for the weather conditions in past years. The results will help you decide how hot, cold, wet, or windy it might be!

Date:

Astronomy

Feb. 06, 2012 Rise Set
Actual Time 11:34 AM CST 1:34 PM CST
Civil Twilight 9:05 AM CST 4:03 PM CST
Nautical Twilight 7:22 AM CST 5:47 PM CST
Astronomical Twilight 5:50 AM CST 7:19 PM CST
Moon No Moon Rise No Moon Set
Length of Visible Light 6h 58m
Length of Day
1h 59m
Waxing Gibbous, 98% of the Moon is Illuminated
Feb 6
Waxing Gibbous
Feb 7
Full
Feb 14
Last Quarter
Feb 21
New
Feb 29
First Quarter

Hourly Weather History & Observations

Time (CST) Temp. Windchill Dew Point Humidity Pressure Visibility Wind Dir Wind Speed Gust Speed Precip Events Conditions
12:00 AM -30 °F - -34 °F 67% 30.13 in 15 mi NW 15.0 mph - -  
12:00 AM -31.0 °F -59.1 °F -34.6 °F 83% 30.13 in 15.0 mi NW 15.0 mph - N/A   Clear
1:00 AM -29.2 °F -48.1 °F -36.4 °F 68% 30.09 in 15.0 mi NNW 6.9 mph - N/A   Scattered Clouds
2:00 AM -27.4 °F -44.1 °F -34.6 °F 69% 30.06 in 15.0 mi NNW 5.8 mph - N/A   Mostly Cloudy
2:43 AM - - - N/A% - 15.0 mi North 4.6 mph - N/A   Unknown
3:00 AM -27.4 °F -44.1 °F -34.6 °F 69% 30.04 in 13.0 mi NNW 5.8 mph - N/A Snow Light Snow
4:00 AM -27.4 °F -39.2 °F -34.6 °F 69% 30.01 in 12.0 mi NW 3.5 mph - N/A Snow Light Snow
5:00 AM -23.8 °F - -32.8 °F 63% 29.97 in 3.0 mi Calm Calm - N/A Snow Light Snow
5:44 AM - - - N/A% - 3.0 mi Calm Calm - N/A   Unknown
6:00 AM -22 °F - -29 °F 54% 29.92 in 4 mi South 3.5 mph - - Snow Light Snow
6:00 AM -22.0 °F -33.0 °F -29.2 °F 69% 29.92 in 4.0 mi South 3.5 mph - N/A Snow Light Snow
7:00 AM -20.2 °F - -29.2 °F 63% 29.88 in 10.0 mi Calm Calm - N/A Snow Light Snow
8:00 AM -16.6 °F -39.8 °F -25.6 °F 64% 29.84 in 8.0 mi WSW 13.8 mph - N/A Snow Light Snow
9:00 AM -16.6 °F -38.9 °F -23.8 °F 70% 29.79 in 10.0 mi West 12.7 mph - N/A Snow Light Snow
10:00 AM -14.8 °F -34.6 °F -22.0 °F 70% 29.75 in 6.0 mi West 10.4 mph - N/A Snow Light Snow
11:00 AM -14.8 °F -36.6 °F -22.0 °F 70% 29.71 in 12.0 mi WNW 12.7 mph - N/A Snow Light Snow
12:00 PM -16 °F - -23 °F 58% 29.68 in 12 mi NW 12.7 mph - - Snow Light Snow
12:00 PM -14.8 °F -36.6 °F -22.0 °F 70% 29.68 in 12.0 mi NW 12.7 mph - N/A Snow Light Snow
1:00 PM -16.6 °F -42.9 °F -22.0 °F 76% 29.66 in 8.0 mi NW 18.4 mph - N/A Snow Light Snow
2:00 PM -18.4 °F -43.7 °F -25.6 °F 70% 29.65 in 6.0 mi NW 16.1 mph - N/A Snow Light Snow
2:39 PM - - - N/A% - 4.0 mi NW 24.2 mph 29.9 mph N/A   Unknown
3:00 PM -23.8 °F -52.9 °F -31.0 °F 69% 29.65 in 5.0 mi NW 19.6 mph 25.3 mph N/A Snow Blowing Snow
4:00 PM -25.6 °F -54.6 °F -34.6 °F 63% 29.65 in 2.5 mi NNW 18.4 mph - N/A Snow Blowing Snow
4:12 PM - - - N/A% - 3.0 mi NW 13.8 mph 20.7 mph N/A   Unknown
4:49 PM - - - N/A% - 0.4 mi NNW 23.0 mph - N/A   Unknown
5:00 PM -27.4 °F -59.0 °F -34.6 °F 69% 29.62 in 0.4 mi NNW 21.9 mph 27.6 mph N/A Snow Blowing Snow
6:00 PM -28 °F - -36 °F 46% 29.61 in 0 mi NNW 24.2 mph - - Snow Snow
6:00 PM -29.2 °F -62.7 °F -36.4 °F 68% 29.61 in 0.5 mi NNW 24.2 mph 29.9 mph N/A Snow Ice Crystals
6:30 PM - - - N/A% - 0.5 mi NNW 21.9 mph 27.6 mph N/A   Ice Crystals
7:00 PM -31.0 °F -66.8 °F -38.2 °F 68% 29.60 in 0.5 mi NNW 27.6 mph 33.4 mph N/A Snow Ice Crystals
7:20 PM - - - N/A% - 0.2 mi NNW 26.5 mph 32.2 mph N/A   Heavy Ice Crystals
8:00 PM -29.2 °F -60.7 °F -38.2 °F 62% 29.61 in 0.4 mi NNW 20.7 mph 26.5 mph N/A Snow Ice Crystals
9:00 PM -29.2 °F -64.4 °F -36.4 °F 68% 29.60 in 0.2 mi NNW 27.6 mph 33.4 mph N/A Snow Heavy Ice Crystals
10:00 PM -29.2 °F -68.3 °F -36.4 °F 68% 29.60 in 0.1 mi NNW 36.8 mph 42.6 mph N/A Snow Heavy Ice Crystals
11:00 PM -27.4 °F -65.8 °F -36.4 °F 62% 29.60 in 0.1 mi NNW 36.8 mph 42.6 mph N/A Snow Heavy Ice Crystals